GLOBALSTAR M057 [-]

Last updated on July 6, 2021, 3:36 p.m. UTC

1 25943U 99058A   21186.91171432 -.00000114  00000-0 -18992-3 0  9990
2 25943  51.9986 121.0127 0002514 296.2481  63.8110 12.24749720990208
UTC
Height (km)
Latitude
Longitude
Inclination
Orbital Period
UTC large
Height (km)
Speed (km/s)
/
Latitude / Longitude
Inclination (degrees)
Orbital Period (minutes)
Azimuth
Elevation
Range (km)
Doppler Factor
iOS Compass Heading
iOS Angle